Location: Ashton River Estates
(39.1762°N, 77.0261°W)
Time: 00:08:33
(UTC+00:00)

GPS 2-04 Rocket1 - Pass Details

Date: 29 October 2020
Orbit: 417 x 546 km, 35.6° (Epoch: 03 December)

Event Time Altitude Azimuth Distance (km) Brightness Sun altitude
Rises 23:32:57 0° 246° (WSW) 2,612 7.7 -16.6°
Reaches altitude 10° 23:35:13 10° 239° (WSW) 1,747 6.4 -17.0°
Maximum altitude 23:39:02 42° 168° (SSE) 766 3.4 -17.8°
Enters shadow 23:40:10 33° 128° (SE) 902 3.5 -18.0°
